Tracking 27122 objects as of 26-Mar-2023
HD Live streaming from Space Station
objects crossing your sky now

STARLINK-1669

Track STARLINK-1669 now!
10-day predictions
STARLINK-1669 is classified as:


NORAD ID: 47624
Int'l Code: 2021-012E
Perigee: 553.7 km
Apogee: 555.5 km
Inclination: 53.1 °
Period: 95.6 minutes
Semi major axis: 6925 km
RCS: Unknown
Launch date: February 16, 2021
Source: United States (US)
Launch site: AIR FORCE EASTERN TEST RANGE (AFETR)
Your satellite tracking list
Your tracking list is empty




NASA's NSSDC Master Catalog

Two Line Element Set (TLE):
1 47624U 21012E   23084.92335661  .00036520  00000-0  24629-2 0  9992
2 47624  53.0532 218.8775 0001334  89.0340 271.0802 15.06325694117534
Source of the keplerian elements: AFSPC